Location: ?
(35.4996°N, 139.3166°E)
Time: 10:19:15
(UTC+00:00)

Terra - Visible Passes

Search period start: 24 July 2024 00:00
Search period end: 03 August 2024 00:00
Orbit: 693 x 694 km, 98.0° (Epoch: 24 July)

Date Brightness Start Highest point End Pass type
(mag) Time Alt. Az. Time Alt. Az. Time Alt. Az.
24 Jul 1.8 12:08:53 57° S 12:09:50 79° W 12:14:34 10° NNW visible
25 Jul 3.1 11:10:42 20° ESE 11:12:29 25° ENE 11:16:19 10° NNE visible
25 Jul 3.3 12:49:24 28° WSW 12:49:55 28° W 12:53:59 10° NW visible
26 Jul 1.8 11:51:12 50° SE 11:52:15 67° ENE 11:56:57 10° N visible
27 Jul 3.6 10:53:01 13° E 10:55:03 17° ENE 10:58:01 10° NNE visible
27 Jul 2.5 12:31:42 42° WSW 12:32:15 44° W 12:36:45 10° NNW visible
28 Jul 2.3 11:33:30 35° ESE 11:34:43 42° ENE 11:39:10 10° N visible
28 Jul 4.0 13:12:13 16° W 13:12:27 16° W 13:15:22 10° NW visible
29 Jul 3.9 10:36:28 10° ENE 10:37:40 11° ENE 10:38:52 10° NE visible
29 Jul 1.9 12:14:01 62° SSW 12:14:36 69° WSW 12:19:19 10° NNW visible
30 Jul 2.9 11:15:49 24° E 11:17:13 28° ENE 11:21:12 10° NNE visible
30 Jul 3.5 12:54:31 25° W 12:54:42 25° W 12:58:34 10° NW visible
31 Jul 1.7 11:56:19 63° SE 11:56:59 76° ENE 12:01:43 10° N visible
01 Aug 3.4 10:58:07 16° E 10:59:44 19° ENE 11:03:00 10° NNE visible
01 Aug 2.8 12:36:49 38° WSW 12:37:00 38° W 12:41:24 10° NNW visible
02 Aug 2.1 11:38:37 43° ESE 11:39:25 48° ENE 11:43:58 10° N visible
02 Aug 4.2 13:17:19 14° W 13:17:19 14° W 13:19:43 10° WNW visible
